Regional Weather Roundup
Issued by NWS

Home | Current Version | Previous Version | Graphics & Text | Print | Product List | Glossary On
Versions: 1 2 3 4 5 6 7 8 9 10 11 12 13 14 15 16 17 18 19 20 21 22 23 24 25 26 27
000
ASUS45 KBOU 252307
RWRCO

WEATHER ROUNDUP FOR COLORADO
NATIONAL WEATHER SERVICE DENVER/BOULDER CO
500 PM MDT SAT MAR 25 2017

NOTE: "FAIR" INDICATES FEW OR NO CLOUDS BELOW 12000 FEET WITH NO
SIGNIFICANT WEATHER AND/OR OBSTRUCTIONS TO VISIBILITY.

COZ001>005-013-030-031-260000-
...NORTHWEST COLORADO...

CITY           SKY/WX    TMP DP  RH WIND       PRES   REMARKS
CRAIG          CLOUDY    58  21  24 SW9       29.86S
HAYDEN         FAIR      55  19  24 W9G17     29.86S
MEEKER         CLOUDY    57  21  24 S10       29.86F
MOUNT WERNER   NOT AVBL
STEAMBOAT SPGS CLOUDY    54  24  31 W10       29.87S
WALDEN         NOT AVBL
$$

COZ006>008-011-260000-
...WEST CENTRAL VALLEYS...

CITY           SKY/WX    TMP DP  RH WIND       PRES   REMARKS
GRAND JUNCTION PTSUNNY   61  27  27 NW7       29.83F
MONTROSE       CLOUDY    60  23  24 W20G31    29.88F
EAGLE          MOSUNNY   61  18  18 W8G16     29.85F
RIFLE          PTSUNNY   61  24  24 W28G39    29.83F
DELTA          CLOUDY    64  21  19 SW16G23   29.87S
NUCLA          CLOUDY    57  21  24 SW9       29.94F
$$

COZ017>023-064>068-260000-
...SOUTHWEST COLORADO...

CITY           SKY/WX    TMP DP  RH WIND       PRES   REMARKS
DURANGO        PTSUNNY   58  16  19 W7        29.92F
CORTEZ         CLOUDY    62  22  21 VRB3      29.89F
PAGOSA SPRINGS PTSUNNY   55  11  17 W10       29.96F
TELLURIDE      NOT AVBL
WOLF CREEK PAS PTSUNNY   32  14  47 S17G28    30.14F WCI  21
$$

COZ009-010-012-014-032>034-037-058>063-260000-
...CENTRAL COLORADO...

CITY           SKY/WX    TMP DP  RH WIND       PRES   REMARKS
ASPEN          PTSUNNY   56  17  21 N12       29.86F
BUENA VISTA    FAIR      56  15  20 S17G25    29.88F
COPPER MTN     CLOUDY    41   9  26 SW7       30.06
BERTHOUD PASS  CLOUDY    28  18  64 SE20      30.09F WCI  15
COTTONWOOD PAS FAIR      52  12  20 SE8G20    29.97F
GUNNISON       FAIR      53  21  28 SW7       29.91F
KREMMLING      FAIR      61  10  13 SW9       29.88F
LEADVILLE      FAIR      47   9  21 S9G20     29.94F
MONARCH PASS   FAIR      37  19  48 S13G28    30.18F
SALIDA         FAIR      59  16  19 S8G18     29.97F
SUNLIGHT       CLOUDY    36  21  55 W9        30.06S
WILKERSON PASS FAIR      39  19  45 S5        30.07F
$$

COZ069>075-260000-
...SAN LUIS VALLEY/SANGRE DE CRISTO MOUNTAINS...

CITY           SKY/WX    TMP DP  RH WIND       PRES   REMARKS
ALAMOSA        FAIR      57  15  19 SW21G28   29.90F
LA VETA PASS   NOT AVBL
SAGUACHE       FAIR      55  23  28 S13       29.93F
$$

COZ035-036-038>040-260000-
...NORTHERN COLORADO FRONT RANGE...

CITY           SKY/WX    TMP DP  RH WIND       PRES   REMARKS
DENVER INTL AP PTSUNNY   59  19  21 E13       29.85F
DMNS CITY PARK   N/A     60  16  17 E10G18    29.84F
AURORA         CLOUDY    58  22  24 S12       29.86F
FRONT RANGE AP PTSUNNY   59  23  25 E12       29.87F
ERIE MUNI ARPT FAIR      63  11  13 E14G21    29.85S
BOULDER MUN AP FAIR      61  30  31 N8        29.84F
CENTENNIAL     PTSUNNY   56  27  32 SE10      29.87F
BROOMFIELD     PTSUNNY   63  12  14 E13       29.86F
FORT COLLINS   FAIR      63  26  24 SE14      29.85F
LONGMONT       FAIR      65  28  24 S6        29.85F
$$

COZ041-046-047-076>085-087-088-260000-
...PIKES PEAK/PALMER DIVIDE AND SOUTHERN FOOTHILLS...

CITY           SKY/WX    TMP DP  RH WIND       PRES   REMARKS
COLO. SPRINGS  PTSUNNY   56  29  35 S15       29.90F
A. F. ACADEMY  FAIR      53  27  36 S17       29.89F
SCHRIEVER AFB  FAIR      54  29  37 S15G24    29.91F
ELLICOTT         N/A    N/A N/A N/A S14       29.90F
FALCON         FAIR      53  26  34 S16       29.93F
FORT CARSON    FAIR      58  29  32 SE10      29.89F
LIMON          FAIR      55  28  35 S9        29.89F
MONUMENT HILL  FAIR      45  30  57 S15       29.92F
TRINIDAD       FAIR      63  31  30 S10       29.87F
$$

COZ042>045-048>051-090-091-260000-
...NORTHEAST COLORADO...

CITY           SKY/WX    TMP DP  RH WIND       PRES   REMARKS
GREELEY ARPT   FAIR      63  27  25 SE14      29.85F
AKRON          FAIR      59  29  31 SE10      29.87F
BURLINGTON     FAIR      59  29  31 CALM      29.90F
WRAY           FAIR      61  23  23 S10       29.89F
STERLING       FAIR      61  32  33 S9        29.85F
HOLYOKE        FAIR      61  30  31 S6        29.89F
FORT MORGAN    FAIR      61  28  28 E9        29.87F
$$

COZ086-089-092>099-260000-
...SOUTHEAST COLORADO...

CITY           SKY/WX    TMP DP  RH WIND       PRES   REMARKS
PUEBLO         FAIR      63  31  30 SE14      29.85F
LA JUNTA       FAIR      66  24  20 E13       29.85F
LAMAR          FAIR      66  22  18 VRB5      29.85F
SPRINGFIELD      N/A     64  21  19 SE8       29.87F
$$




USA.gov is the U.S. government's official web portal to all federal, state and local government web resources and services.